| time (UTC) | temp F | wind direction | speed MPH | gust MPH | rain 1hr in | rain 24hr in | rain mn in | humidity % | barometer mb |
| 20260506023028 | 65 | 111 | 3.0 | 7.0 | 0.00 | 0.00 | 0.00 | 64 | 1032.8 |
| 20260506022025 | 65 | 122 | 2.0 | 6.0 | 0.00 | 0.00 | 0.00 | 65 | 1033.0 |
| 20260506021022 | 64 | 125 | 3.0 | 7.0 | 0.00 | 0.00 | 0.00 | 67 | 1033.0 |
| 20260506020020 | 64 | 122 | 4.0 | 8.0 | 0.00 | 0.00 | 0.00 | 68 | 1033.1 |
| 20260506015017 | 63 | 129 | 3.0 | 7.0 | 0.00 | 0.00 | 0.00 | 69 | 1033.1 |
| 20260506014036 | 63 | 149 | 3.0 | 5.0 | 0.00 | 0.00 | 0.00 | 70 | 1033.0 |
| 20260506013033 | 63 | 143 | 3.0 | 5.0 | 0.00 | 0.00 | 0.00 | 70 | 1033.0 |
| 20260506012030 | 62 | 140 | 2.0 | 6.0 | 0.00 | 0.00 | 0.00 | 71 | 1032.9 |
| 20260506011028 | 62 | 125 | 3.0 | 6.0 | 0.00 | 0.00 | 0.00 | 72 | 1032.9 |
| 20260506010025 | 61 | 118 | 3.0 | 6.0 | 0.00 | 0.00 | 0.00 | 74 | 1032.9 |
| 20260506005022 | 60 | 114 | 3.0 | 8.0 | 0.00 | 0.00 | 0.00 | 75 | 1032.8 |
| 20260506004020 | 60 | 113 | 3.0 | 9.0 | 0.00 | 0.00 | 0.00 | 76 | 1032.7 |
| 20260506003017 | 59 | 57 | 3.0 | 6.0 | 0.00 | 0.00 | 0.00 | 78 | 1032.8 |
| 20260506002035 | 58 | 88 | 4.0 | 7.0 | 0.00 | 0.00 | 0.00 | 79 | 1032.7 |
| 20260506001032 | 57 | 53 | 3.0 | 7.0 | 0.00 | 0.00 | 0.00 | 81 | 1032.6 |
| 20260506000030 | 56 | 93 | 3.0 | 6.0 | 0.00 | 0.00 | 0.00 | 83 | 1032.5 |
| 20260505235027 | 55 | 109 | 3.0 | 6.0 | 0.00 | 0.00 | 0.00 | 84 | 1032.3 |
| 20260505234024 | 55 | 102 | 2.0 | 5.0 | 0.00 | 0.00 | 0.00 | 83 | 1032.1 |
| 20260505233021 | 55 | 221 | 1.0 | 4.0 | 0.00 | 0.00 | 0.00 | 83 | 1032.0 |
| 20260505232018 | 55 | 82 | 3.0 | 7.0 | 0.00 | 0.00 | 0.00 | 83 | 1031.9 |
| 20260505231035 | 55 | 25 | 4.0 | 8.0 | 0.00 | 0.00 | 0.00 | 83 | 1031.9 |
| 20260505230030 | 55 | 89 | 3.0 | 5.0 | 0.00 | 0.00 | 0.00 | 83 | 1031.8 |
| 20260505225026 | 55 | 37 | 3.0 | 6.0 | 0.00 | 0.00 | 0.00 | 83 | 1031.7 |
| 20260505224023 | 55 | 35 | 3.0 | 9.0 | 0.00 | 0.00 | 0.00 | 83 | 1031.6 |
| 20260505223020 | 55 | 135 | 4.0 | 8.0 | 0.00 | 0.00 | 0.00 | 83 | 1031.5 |
| 20260505222035 | 55 | 124 | 2.0 | 5.0 | 0.00 | 0.00 | 0.00 | 83 | 1031.5 |
| 20260505221030 | 55 | 189 | 4.0 | 6.0 | 0.00 | 0.00 | 0.00 | 82 | 1031.3 |
| 20260505220025 | 55 | 25 | 3.0 | 5.0 | 0.00 | 0.00 | 0.00 | 82 | 1031.3 |
| 20260505215019 | 55 | 70 | 3.0 | 6.0 | 0.00 | 0.00 | 0.00 | 82 | 1031.2 |
| 20260505214035 | 55 | 18 | 3.0 | 8.0 | 0.00 | 0.00 | 0.00 | 83 | 1031.2 |
| 20260505213029 | 55 | 4 | 3.0 | 6.0 | 0.00 | 0.00 | 0.00 | 83 | 1031.0 |
| 20260505212024 | 55 | 93 | 2.0 | 6.0 | 0.00 | 0.00 | 0.00 | 83 | 1031.0 |
| 20260505211018 | 55 | 7 | 5.0 | 7.0 | 0.00 | 0.00 | 0.00 | 83 | 1030.9 |
| 20260505210034 | 55 | 124 | 4.0 | 6.0 | 0.00 | 0.00 | 0.00 | 83 | 1030.9 |
| 20260505205027 | 55 | 184 | 5.0 | 7.0 | 0.00 | 0.00 | 0.00 | 82 | 1030.8 |
| 20260505204023 | 55 | 216 | 1.0 | 3.0 | 0.00 | 0.00 | 0.00 | 82 | 1030.8 |
| 20260505203017 | 55 | 118 | 4.0 | 9.0 | 0.00 | 0.00 | 0.00 | 83 | 1030.7 |
| 20260505202033 | 55 | 174 | 5.0 | 7.0 | 0.00 | 0.00 | 0.00 | 83 | 1030.8 |
| 20260505201028 | 54 | 78 | 1.0 | 4.0 | 0.00 | 0.00 | 0.00 | 83 | 1030.8 |
| 20260505200024 | 55 | 161 | 2.0 | 4.0 | 0.00 | 0.00 | 0.00 | 82 | 1030.6 |
| 20260505195018 | 55 | 92 | 2.0 | 4.0 | 0.00 | 0.00 | 0.00 | 82 | 1030.7 |
| 20260505194034 | 55 | 118 | 3.0 | 5.0 | 0.00 | 0.00 | 0.00 | 81 | 1030.7 |
| 20260505193029 | 55 | 122 | 3.0 | 5.0 | 0.00 | 0.00 | 0.00 | 81 | 1030.8 |
| 20260505192022 | 54 | 129 | 2.0 | 4.0 | 0.00 | 0.00 | 0.00 | 81 | 1030.8 |
| 20260505191035 | 54 | 126 | 2.0 | 4.0 | 0.00 | 0.00 | 0.00 | 81 | 1030.7 |
| 20260505190028 | 54 | 118 | 2.0 | 4.0 | 0.00 | 0.00 | 0.00 | 81 | 1030.8 |
| 20260505185022 | 54 | 133 | 1.0 | 3.0 | 0.00 | 0.00 | 0.00 | 80 | 1030.7 |
| 20260505184017 | 54 | 108 | 2.0 | 4.0 | 0.00 | 0.00 | 0.00 | 80 | 1030.6 |
| 20260505183033 | 54 | 77 | 2.0 | 4.0 | 0.00 | 0.00 | 0.00 | 80 | 1030.7 |
| 20260505182026 | 54 | 47 | 2.0 | 5.0 | 0.00 | 0.00 | 0.00 | 81 | 1030.7 |
| 20260505181016 | 54 | 35 | 2.0 | 5.0 | 0.00 | 0.00 | 0.00 | 82 | 1030.7 |
| 20260505180034 | 53 | 68 | 2.0 | 4.0 | 0.00 | 0.00 | 0.00 | 86 | 1030.5 |
| 20260505175027 | 52 | 89 | 2.0 | 4.0 | 0.00 | 0.00 | 0.00 | 90 | 1030.5 |
| 20260505174020 | 51 | 84 | 1.0 | 2.0 | 0.00 | 0.00 | 0.00 | 91 | 1030.3 |
| 20260505173034 | 50 | 103 | 2.0 | 3.0 | 0.00 | 0.00 | 0.00 | 92 | 1030.4 |
| 20260505172029 | 49 | 95 | 1.0 | 3.0 | 0.00 | 0.00 | 0.00 | 92 | 1030.3 |
| 20260505171022 | 49 | 101 | 1.0 | 2.0 | 0.00 | 0.00 | 0.00 | 91 | 1030.4 |
| 20260505170017 | 49 | 100 | 1.0 | 2.0 | 0.00 | 0.00 | 0.00 | 91 | 1030.3 |
| 20260505165031 | 50 | 71 | 1.0 | 3.0 | 0.00 | 0.00 | 0.00 | 91 | 1030.3 |
| 20260505164025 | 50 | 91 | 2.0 | 3.0 | 0.00 | 0.00 | 0.00 | 91 | 1030.3 |
| 20260505163021 | 50 | 73 | 2.0 | 3.0 | 0.00 | 0.00 | 0.00 | 91 | 1030.2 |
| 20260505162035 | 50 | 94 | 1.0 | 2.0 | 0.00 | 0.00 | 0.00 | 91 | 1030.1 |
| 20260505161028 | 51 | 49 | 1.0 | 3.0 | 0.00 | 0.00 | 0.00 | 91 | 1030.0 |
| 20260505153029 | 51 | 65 | 1.0 | 2.0 | 0.00 | 0.00 | 0.00 | 90 | 1029.9 |
| 20260505152021 | 51 | 75 | 1.0 | 2.0 | 0.00 | 0.00 | 0.00 | 90 | 1029.9 |
| 20260505151017 | 52 | 96 | 1.0 | 2.0 | 0.00 | 0.00 | 0.00 | 90 | 1029.9 |
| 20260505125015 | 55 | 93 | 1.0 | 2.0 | 0.00 | 0.00 | 0.00 | 87 | 1029.6 |
| 20260505124030 | 55 | 127 | 1.0 | 2.0 | 0.00 | 0.00 | 0.00 | 86 | 1029.7 |
| 20260505123025 | 54 | 125 | 1.0 | 2.0 | 0.00 | 0.00 | 0.00 | 84 | 1029.6 |
| 20260505122021 | 55 | 136 | 1.0 | 2.0 | 0.00 | 0.00 | 0.00 | 83 | 1029.6 |
| 20260505121016 | 56 | 148 | 1.0 | 2.0 | 0.00 | 0.00 | 0.00 | 83 | 1029.5 |
| 20260505120031 | 57 | 150 | 1.0 | 2.0 | 0.00 | 0.00 | 0.00 | 81 | 1029.5 |
| 20260505115026 | 58 | 124 | 1.0 | 3.0 | 0.00 | 0.00 | 0.00 | 81 | 1029.5 |
| 20260505114021 | 58 | 128 | 1.0 | 2.0 | 0.00 | 0.00 | 0.00 | 78 | 1029.5 |
| 20260505113016 | 59 | 144 | 1.0 | 2.0 | 0.00 | 0.00 | 0.00 | 77 | 1029.4 |
| 20260505112033 | 59 | 132 | 1.0 | 3.0 | 0.00 | 0.00 | 0.00 | 77 | 1029.4 |
| 20260505111029 | 60 | 132 | 1.0 | 2.0 | 0.00 | 0.00 | 0.00 | 75 | 1029.2 |
| 20260505102027 | 63 | 123 | 1.0 | 2.0 | 0.00 | 0.00 | 0.00 | 71 | 1028.7 |
| 20260505101021 | 63 | 148 | 1.0 | 3.0 | 0.00 | 0.00 | 0.00 | 70 | 1028.7 |
| 20260505100017 | 64 | 159 | 1.0 | 2.0 | 0.00 | 0.00 | 0.00 | 71 | 1028.6 |
| 20260505095029 | 64 | 149 | 1.0 | 2.0 | 0.00 | 0.00 | 0.00 | 71 | 1028.5 |
| 20260505094023 | 65 | 164 | 1.0 | 3.0 | 0.00 | 0.00 | 0.00 | 71 | 1028.5 |
| 20260505093017 | 65 | 176 | 1.0 | 4.0 | 0.00 | 0.00 | 0.00 | 71 | 1028.5 |
| 20260505092032 | 66 | 195 | 2.0 | 3.0 | 0.00 | 0.00 | 0.00 | 70 | 1028.4 |
| 20260505091028 | 66 | 156 | 2.0 | 4.0 | 0.00 | 0.00 | 0.00 | 69 | 1028.4 |
| 20260505090024 | 67 | 204 | 2.0 | 4.0 | 0.00 | 0.00 | 0.00 | 68 | 1028.4 |
| 20260505085019 | 67 | 203 | 3.0 | 4.0 | 0.00 | 0.00 | 0.00 | 68 | 1028.3 |
| 20260505084036 | 67 | 209 | 4.0 | 7.0 | 0.00 | 0.00 | 0.00 | 67 | 1028.2 |
| 20260505083032 | 68 | 204 | 4.0 | 6.0 | 0.00 | 0.00 | 0.00 | 66 | 1028.2 |
| 20260505082029 | 67 | 196 | 4.0 | 8.0 | 0.00 | 0.00 | 0.00 | 66 | 1028.2 |
| 20260505081026 | 68 | 209 | 5.0 | 7.0 | 0.00 | 0.00 | 0.00 | 66 | 1028.2 |
| 20260505080021 | 68 | 198 | 4.0 | 8.0 | 0.00 | 0.00 | 0.00 | 65 | 1028.2 |
| 20260505075018 | 68 | 189 | 5.0 | 7.0 | 0.00 | 0.00 | 0.00 | 65 | 1028.1 |
| 20260505074016 | 68 | 213 | 5.0 | 10.0 | 0.00 | 0.00 | 0.00 | 64 | 1028.2 |
| 20260505073033 | 69 | 203 | 5.0 | 11.0 | 0.00 | 0.00 | 0.00 | 62 | 1028.2 |
| 20260505072031 | 69 | 207 | 6.0 | 9.0 | 0.00 | 0.00 | 0.00 | 62 | 1028.2 |
| 20260505071028 | 69 | 201 | 5.0 | 10.0 | 0.00 | 0.00 | 0.00 | 61 | 1028.2 |
| 20260505070026 | 70 | 190 | 5.0 | 8.0 | 0.00 | 0.00 | 0.00 | 60 | 1028.2 |
| 20260505065023 | 70 | 214 | 5.0 | 10.0 | 0.00 | 0.00 | 0.00 | 59 | 1028.1 |
| 20260505064020 | 70 | 195 | 5.0 | 7.0 | 0.00 | 0.00 | 0.00 | 59 | 1028.2 |
| 20260505063017 | 70 | 208 | 6.0 | 9.0 | 0.00 | 0.00 | 0.00 | 59 | 1028.1 |
| 20260505062035 | 70 | 195 | 5.0 | 7.0 | 0.00 | 0.00 | 0.00 | 59 | 1028.0 |
| 20260505061032 | 70 | 192 | 4.0 | 6.0 | 0.00 | 0.00 | 0.00 | 59 | 1028.1 |
| 20260505060029 | 70 | 193 | 4.0 | 7.0 | 0.00 | 0.00 | 0.00 | 59 | 1028.1 |
| 20260505055027 | 70 | 194 | 6.0 | 9.0 | 0.00 | 0.00 | 0.00 | 58 | 1028.1 |
| 20260505054024 | 70 | 196 | 5.0 | 7.0 | 0.00 | 0.00 | 0.00 | 59 | 1028.0 |
| 20260505053021 | 70 | 205 | 5.0 | 7.0 | 0.00 | 0.00 | 0.00 | 58 | 1028.1 |
| 20260505052019 | 71 | 177 | 3.0 | 6.0 | 0.00 | 0.00 | 0.00 | 53 | 1028.2 |
| 20260505051016 | 70 | 212 | 3.0 | 5.0 | 0.00 | 0.00 | 0.00 | 53 | 1028.5 |
| 20260505041021 | 70 | 98 | 1.0 | 3.0 | 0.00 | 0.00 | 0.00 | 53 | 1029.4 |
| 20260505040018 | 70 | 331 | 1.0 | 3.0 | 0.00 | 0.00 | 0.00 | 53 | 1029.5 |
| 20260505035015 | 69 | 261 | 1.0 | 3.0 | 0.00 | 0.00 | 0.00 | 54 | 1029.7 |
| 20260505034045 | 70 | 6 | 2.0 | 4.0 | 0.00 | 0.00 | 0.00 | 54 | 1029.8 |
| 20260505033030 | 68 | 86 | 1.0 | 2.0 | 0.00 | 0.00 | 0.00 | 55 | 1029.8 |
| 20260505032027 | 67 | 3 | 1.0 | 3.0 | 0.00 | 0.00 | 0.00 | 57 | 1030.0 |
| 20260505031025 | 67 | 237 | 0.0 | 2.0 | 0.00 | 0.00 | 0.00 | 58 | 1029.9 |
| 20260505030022 | 67 | 316 | 2.0 | 5.0 | 0.00 | 0.00 | 0.00 | 59 | 1030.1 |
| 20260505025021 | 68 | 86 | 1.0 | 3.0 | 0.00 | 0.00 | 0.00 | 57 | 1030.2 |
| 20260505024017 | 66 | 71 | 0.0 | 3.0 | 0.00 | 0.00 | 0.00 | 61 | 1030.2 |